Location: Ammerl�gen
(47.2167°N, 9.6000°E)
Time: 03:15:02
(UTC+00:00)

Meteor 1-27 - Pass Details

Date: 21 April 2021
Orbit: 838 x 892 km, 81.2° (Epoch: 16 May)

Event Time Altitude Azimuth Distance (km) Brightness Sun altitude
Exits shadow 20:22:42 22° 176° (S) 1,824 5.5 -18.7°
Maximum altitude 20:26:31 70° 98° (E) 937 4.2 -19.1°
Drops below altitude 10° 20:32:19 10° 15° (NNE) 2,565 7.1 -19.8°
Sets 20:34:48 0° 14° (NNE) 3,513 7.9 -20.1°
